Date,TemperatureHighF,TemperatureAvgF,TemperatureLowF,DewpointHighF,DewpointAvgF,DewpointLowF,HumidityHigh,HumidityAvg,HumidityLow,PressureMaxIn,PressureMinIn,WindSpeedMaxMPH,WindSpeedAvgMPH,GustSpeedMaxMPH,PrecipitationSumIn
2013-9-1,82,73,69,78,72,68,100,98,86,29.02,28.93,6,0,6,0.07
2013-9-2,79,73,70,75,71,69,100,98,86,29.07,28.95,6,0,6,0.01
2013-9-3,88,77,70,78,73,70,100,90,68,29.06,28.96,4,0,4,0.00
2013-9-4,89,74,66,74,69,66,100,85,56,29.17,29.05,4,0,4,0.00
2013-9-5,87,74,66,73,68,65,100,85,54,29.20,29.13,6,0,6,0.01
2013-9-6,87,74,64,70,67,63,100,83,54,29.23,29.12,10,0,10,0.00
2013-9-7,96,74,63,72,67,62,100,82,45,29.20,29.07,5,0,5,0.19
2013-9-8,89,74,63,73,68,62,100,84,56,29.11,29.01,6,0,6,0.00
2013-9-9,88,75,66,73,69,66,99,85,57,29.19,29.06,6,0,7,0.00
2013-9-10,86,74,66,74,70,66,100,89,61,29.29,29.18,6,0,7,0.01
2013-9-11,88,74,64,74,68,64,100,84,50,29.30,29.17,7,0,7,0.00
2013-9-12,88,75,64,72,68,64,100,83,57,29.19,28.99,6,0,6,0.00
2013-9-13,85,73,63,70,65,56,96,77,50,29.02,28.89,8,0,8,0.00
2013-9-14,79,66,53,61,56,51,98,75,46,29.15,28.98,11,0,11,0.00
2013-9-15,80,69,59,71,64,57,98,88,68,29.24,29.14,8,0,8,0.00
2013-9-16,86,72,65,72,65,61,99,80,45,29.22,29.13,6,0,6,0.00
2013-9-17,76,69,63,64,62,60,96,79,61,29.30,29.18,11,1,11,0.00
2013-9-18,74,68,63,64,61,58,94,79,66,29.31,29.19,7,0,7,0.00
2013-9-19,82,69,58,67,62,57,99,82,53,29.26,29.14,6,0,6,0.00
2013-9-20,85,71,60,68,64,59,99,82,51,29.17,28.98,6,0,8,0.00
2013-9-21,70,67,64,70,66,64,100,98,90,29.01,28.81,9,0,9,0.86
2013-9-22,81,66,57,68,62,57,100,88,57,28.97,28.84,6,0,6,0.08
2013-9-23,80,66,56,64,60,55,100,83,54,29.09,28.96,7,0,7,0.01
2013-9-24,69,66,64,65,62,61,98,89,78,29.11,28.96,6,0,6,0.01
2013-9-25,65,64,63,65,63,63,100,100,97,28.97,28.91,7,0,7,0.02
2013-9-26,77,67,59,68,64,59,100,91,72,29.09,28.95,5,0,5,0.01
2013-9-27,79,67,57,66,60,57,100,82,51,29.21,29.08,6,0,7,0.02
2013-9-28,76,63,54,59,57,54,100,83,54,29.29,29.18,11,0,11,0.00
2013-9-29,76,61,52,59,55,51,100,84,51,29.23,29.10,8,0,8,0.00
2013-9-30,74,63,53,61,57,52,99,85,57,29.17,29.06,8,0,8,0.00